Wind_Speed
16 17 17 17 18 18 18 18 18 18 18 18 19 18 17 17 17 17 17 16 15 15 15 14 13 13 12 12 12 11 12 12 12 14 15 15 14 13 13 13 14 15 15 16 17 17 18 20 21 19 19 21 22 21 22 24 25 25 24 23 23 22 22 20 15 16 22 25 26 28 29 32 34 35 37 38 39 39 38 37 38 38 37 38 39
18 18 18 18 19 19 20 20 20 20 20 20 19 19 18 18 17 17 17 16 16 16 16 14 13 13 12 11 10 10 10 11 12 13 15 15 14 13 13 13 14 15 15 16 17 17 18 20 19 17 18 20 21 21 24 26 25 25 24 22 22 22 21 20 19 18 23 27 27 27 28 29 31 32 34 36 38 39 39 39 39 38 38 38 38
20 20 20 20 20 21 21 20 19 19 20 20 19 18 18 18 18 18 18 16 16 15 14 14 13 12 12 12 11 10 10 11 13 12 13 14 14 13 12 13 14 15 15 15 15 16 17 18 18 16 16 18 20 23 26 27 25 23 23 21 20 21 22 21 20 20 23 26 27 26 28 29 29 30 32 35 36 37 38 40 39 39 39 38 37
21 21 22 22 21 20 20 20 21 21 20 20 19 19 18 18 18 18 18 17 15 14 13 12 12 12 12 12 12 12 11 11 12 12 12 13 14 13 12 12 13 13 13 13 13 13 15 16 16 15 15 17 21 26 29 28 26 24 22 21 20 20 21 22 21 21 22 23 25 26 27 29 29 30 32 33 34 35 36 37 38 39 40 38 38
22 22 22 22 21 21 22 22 22 22 21 20 20 20 19 18 18 18 18 18 17 15 13 12 12 13 12 12 14 15 13 11 11 11 12 13 13 12 12 11 12 12 12 13 13 13 13 14 14 14 15 18 22 26 29 28 26 24 22 22 22 21 21 22 21 22 22 22 25 27 27 27 27 29 31 31 33 35 35 35 36 37 38 39 40
24 23 23 24 23 23 23 23 23 22 22 21 20 20 19 18 18 17 17 18 17 15 14 12 13 14 13 13 15 16 15 13 11 10 11 11 11 13 14 12 11 10 11 12 13 13 14 12 12 14 17 19 20 23 27 27 26 25 23 23 24 23 22 22 22 22 22 23 24 26 27 26 26 27 28 30 31 32 34 35 34 33 34 38 41
24 24 24 24 25 25 24 24 23 22 22 21 20 20 19 18 18 17 16 16 16 15 13 12 12 14 14 14 15 15 15 14 12 11 11 11 11 12 13 12 10 9 9 10 11 13 13 12 11 14 17 18 19 22 24 25 26 26 25 24 25 25 23 22 23 23 22 22 23 24 25 24 25 26 29 31 30 28 30 32 33 34 34 35 38
25 24 24 25 26 26 25 24 23 23 22 21 21 21 20 19 18 18 16 16 17 16 14 12 12 14 14 14 14 14 15 15 13 12 11 11 10 10 10 10 10 10 8 9 11 12 12 11 10 13 17 18 18 21 23 24 26 27 26 25 25 26 24 23 23 23 22 22 22 23 23 23 24 27 30 30 28 26 28 30 32 35 36 36 36
25 25 25 26 26 26 26 25 24 23 22 21 22 21 20 20 19 19 18 19 19 17 14 12 11 13 15 14 14 13 14 14 14 13 11 11 10 9 9 9 9 10 8 8 9 11 11 9 8 11 16 16 18 20 21 22 24 26 27 25 24 25 25 24 24 24 23 21 22 23 23 22 24 26 27 28 28 29 31 32 31 33 37 39 38
25 26 26 26 27 27 26 25 24 23 22 21 22 21 20 20 20 20 20 20 18 15 14 14 14 16 17 15 13 13 13 13 12 11 10 10 9 9 9 9 9 9 9 7 7 9 10 8 7 10 14 16 19 21 20 21 23 24 25 25 24 25 25 26 26 25 23 21 22 24 22 22 25 27 28 31 32 31 32 31 30 32 34 33 34
26 26 26 27 27 27 26 26 25 24 24 23 22 21 21 20 20 20 20 19 16 14 15 18 18 18 18 17 15 13 12 11 10 10 9 9 9 8 9 10 9 8 11 8 5 6 9 7 7 11 15 17 20 22 21 21 22 23 24 25 24 24 25 26 27 27 25 23 24 25 23 23 27 29 31 32 33 32 32 32 30 30 28 22 24
26 27 27 27 27 27 26 26 25 24 24 23 22 22 21 21 21 20 19 18 15 13 14 17 19 19 18 18 16 14 12 10 9 9 10 9 8 8 9 10 9 8 11 10 3 3 8 7 7 13 18 20 21 22 22 23 24 25 26 26 26 26 25 26 28 29 28 26 25 26 26 26 28 30 32 34 35 35 35 33 30 28 28 25 23
27 27 28 27 27 27 27 26 26 25 24 23 22 22 21 21 21 20 19 18 16 14 12 12 15 17 19 18 17 16 14 11 9 8 9 9 8 8 9 10 10 9 12 13 7 3 5 7 10 16 20 20 22 23 24 25 26 27 28 28 28 27 27 27 27 28 29 28 27 27 29 29 29 32 37 38 37 37 35 33 32 30 29 29 28
28 28 28 28 28 28 27 27 27 25 25 24 23 23 22 21 20 19 19 18 17 15 12 10 9 12 16 19 19 18 15 13 10 7 8 8 8 9 9 9 9 8 12 15 9 3 4 8 13 19 20 21 23 24 24 27 27 28 29 29 29 29 28 29 29 29 29 28 28 30 32 31 32 36 42 42 39 37 36 35 36 35 35 35 36
28 29 29 28 28 28 27 28 27 26 26 25 24 23 22 21 20 19 18 18 17 15 13 10 8 7 10 15 19 20 18 15 12 9 8 7 7 9 11 9 7 7 11 15 11 4 5 9 14 20 22 22 22 22 24 27 29 30 31 31 29 29 29 29 30 31 31 30 28 30 32 34 37 41 44 43 41 39 39 38 39 39 39 38 37
28 29 29 29 29 29 29 29 28 27 26 25 24 23 22 21 20 19 18 17 16 15 14 11 9 7 7 10 15 18 19 18 15 12 9 7 6 9 13 11 8 6 9 14 14 7 6 9 15 21 23 21 21 23 25 29 31 32 33 32 31 30 30 30 31 33 33 29 27 29 33 37 41 43 43 43 43 42 42 40 38 35 32 29 27
29 30 30 30 30 30 30 29 29 28 27 25 24 23 22 21 20 19 18 17 15 14 14 13 10 7 6 8 11 15 17 18 16 13 11 9 8 11 14 14 12 8 7 12 15 11 8 11 16 20 20 20 23 27 29 30 32 33 33 33 32 31 31 32 33 34 33 28 27 32 37 40 42 43 43 43 43 44 41 36 34 32 26 19 17
30 30 30 31 31 30 30 30 29 28 27 25 24 23 22 21 19 18 17 16 15 14 14 13 12 9 8 9 9 11 14 16 15 14 13 13 13 13 15 16 14 11 8 9 13 13 11 12 15 16 19 23 28 30 29 31 33 33 33 34 32 30 32 34 35 36 33 30 31 36 40 42 42 42 43 43 43 43 38 34 34 33 25 17 17
31 31 31 32 32 31 30 30 29 28 26 25 24 22 21 20 18 17 16 15 14 13 12 11 10 8 7 8 8 9 11 13 14 13 12 14 15 14 15 16 15 13 11 10 10 12 12 13 14 17 22 26 29 29 28 29 30 31 33 33 30 30 34 36 36 36 34 32 34 38 41 42 42 42 42 43 43 42 38 35 35 32 26 23 22
31 32 32 32 31 30 30 29 28 28 26 25 23 22 21 20 18 17 16 15 14 12 9 7 7 6 5 4 5 7 9 11 13 13 12 12 13 14 15 16 15 13 12 10 10 12 14 16 19 22 24 26 27 27 27 27 28 30 31 30 29 32 36 36 34 34 34 33 34 38 41 42 43 43 43 43 42 41 38 36 36 33 29 27 25
32 33 32 32 31 30 30 29 28 27 26 24 23 22 20 19 18 17 17 17 15 12 9 8 7 6 5 5 4 4 6 9 11 12 12 12 12 13 15 15 13 12 12 11 12 13 16 20 24 24 24 25 25 24 25 26 29 31 30 28 30 33 34 32 32 34 35 34 34 38 40 41 43 43 42 42 42 41 39 38 37 36 32 29 26
33 33 33 32 31 30 30 29 28 26 25 24 23 21 19 18 18 18 18 16 14 12 11 11 9 7 8 8 6 3 4 6 9 11 11 11 11 11 12 12 11 11 12 13 14 15 18 22 24 24 24 25 23 23 24 25 28 31 28 27 31 34 31 30 32 34 35 34 34 36 39 41 42 42 41 42 43 41 41 40 39 37 33 29 27
34 33 33 32 32 31 30 29 28 26 25 23 22 20 18 17 16 16 16 14 12 11 12 12 11 10 11 12 10 5 3 4 7 9 11 11 11 10 9 9 8 9 12 13 15 16 20 22 22 22 23 22 21 24 27 26 27 30 28 27 31 33 31 31 32 33 34 34 34 35 38 40 41 41 42 43 44 43 41 40 40 37 33 30 26
34 33 33 32 32 31 30 29 27 26 24 23 22 21 19 17 16 15 16 15 13 12 12 12 12 11 12 14 12 8 5 3 4 8 10 11 11 9 8 8 7 8 10 12 15 17 20 21 20 20 21 20 19 24 28 27 28 29 28 28 32 33 31 32 33 33 33 33 33 34 37 39 40 41 42 43 43 42 41 41 40 38 34 30 26
33 33 33 32 32 31 29 28 26 25 24 23 22 20 18 18 16 15 16 15 14 13 12 11 10 10 12 13 12 10 7 4 3 7 10 11 9 8 8 7 7 9 11 14 16 18 18 18 17 18 19 18 18 24 28 28 28 29 28 30 33 32 31 33 34 33 32 32 33 34 36 38 40 42 42 41 41 42 42 43 44 42 39 35 30
33 33 32 32 31 30 29 28 26 24 23 22 20 18 18 18 16 15 15 16 15 14 13 12 11 10 9 10 12 13 10 5 1 6 9 9 7 7 7 7 8 10 12 14 16 16 16 16 16 18 18 17 19 25 28 27 29 29 29 32 33 31 32 33 33 32 32 33 35 36 37 39 41 42 41 39 40 42 42 42 43 44 42 38 34
33 32 32 32 30 29 29 28 26 24 22 20 19 18 17 17 14 13 14 14 13 11 11 12 12 12 10 10 13 14 11 4 2 6 8 8 6 5 5 7 8 10 12 14 15 17 18 18 17 18 17 16 19 25 27 27 29 29 30 33 33 31 33 34 33 33 35 36 37 38 39 40 41 42 41 38 40 42 42 41 40 41 41 37 31
33 32 32 31 29 29 29 28 27 24 22 20 19 17 16 15 13 12 12 13 12 11 12 11 11 11 11 11 12 11 7 3 4 6 7 6 5 3 4 6 8 10 13 15 17 18 19 19 17 17 16 16 20 25 27 27 29 29 31 34 33 32 34 35 34 36 37 38 38 39 40 40 41 42 41 38 38 42 42 41 39 38 39 36 30
33 31 31 29 28 28 29 28 27 24 22 20 18 16 14 14 13 11 11 12 12 12 13 12 10 9 10 10 9 8 5 5 6 6 6 6 5 3 3 6 9 12 15 18 19 18 18 18 18 18 17 16 20 25 27 27 28 29 32 34 33 33 35 36 35 36 38 38 38 39 39 40 40 41 40 37 38 41 42 41 39 38 37 35 30
32 30 29 28 28 29 30 28 26 24 22 19 16 14 13 12 12 11 11 11 11 11 12 12 10 9 9 9 8 8 7 7 6 5 4 5 5 4 5 7 11 13 15 18 18 16 16 18 18 18 17 17 19 23 26 26 26 29 32 34 33 33 34 35 35 36 38 38 38 39 39 39 39 40 39 37 37 40 41 40 39 37 36 35 32
31 29 28 28 30 31 30 29 27 24 21 19 17 16 16 13 11 9 9 8 9 10 10 9 8 9 11 10 8 6 6 5 4 3 3 4 4 4 6 8 11 13 16 18 16 13 14 17 18 16 17 17 18 21 24 25 25 27 31 33 33 33 33 34 35 36 37 38 39 39 40 39 39 40 39 36 36 38 39 39 38 37 36 34 31
30 29 28 30 32 32 30 29 28 25 22 21 21 19 18 16 13 10 7 6 7 8 9 9 8 9 9 9 7 5 4 4 3 2 1 3 3 4 6 8 10 12 16 17 14 10 13 16 16 15 17 18 17 20 22 23 23 26 29 30 32 33 32 33 34 35 36 38 38 39 40 40 40 41 40 37 34 35 36 37 38 37 35 34 33
30 29 29 31 33 32 30 30 29 26 24 24 23 21 20 18 16 13 9 9 9 10 10 10 9 9 9 8 7 6 5 3 3 2 1 1 3 5 7 8 9 11 14 16 13 9 12 15 14 14 16 17 18 19 20 20 22 25 27 28 29 31 31 32 33 34 36 37 38 39 40 40 40 41 41 38 34 33 34 35 36 36 34 33 33
31 30 31 33 33 31 31 31 28 25 24 24 23 22 19 18 18 16 14 13 14 13 13 13 13 12 11 10 9 8 5 3 3 3 2 2 3 6 8 8 9 9 11 13 12 9 11 14 13 12 15 16 17 19 19 18 20 24 26 26 27 29 30 30 31 32 34 36 37 38 40 40 40 40 40 38 35 33 33 34 35 35 34 32 32
29 29 31 32 31 29 30 30 27 23 23 24 23 21 19 18 18 19 19 19 19 17 16 16 16 15 14 12 11 10 8 5 5 5 5 5 6 8 9 10 10 10 10 12 12 10 11 12 11 11 13 15 16 18 18 18 19 22 25 25 27 28 29 29 29 30 32 34 36 37 38 39 39 39 39 38 35 33 32 33 34 34 33 32 31
27 28 30 30 28 25 26 27 25 22 22 24 24 22 20 19 19 20 21 22 21 19 17 17 16 16 16 15 14 13 11 9 8 7 8 9 10 11 12 12 13 14 14 13 12 11 11 10 9 11 12 13 15 17 18 17 18 20 22 23 25 28 28 27 27 28 29 32 34 36 37 38 39 39 39 38 37 34 32 32 32 33 34 33 30
25 26 29 30 28 24 23 25 25 22 19 21 23 23 23 22 22 22 23 24 23 20 19 18 17 18 19 18 17 17 15 12 11 11 11 12 13 14 15 16 16 17 17 15 12 12 10 9 8 10 11 13 15 16 16 17 17 18 19 20 23 26 27 26 25 25 27 29 31 34 35 36 38 38 37 37 37 36 33 32 31 31 32 32 31
25 25 27 29 29 26 23 23 24 23 20 18 19 21 22 22 23 24 24 24 23 23 21 19 19 20 20 17 17 18 17 16 15 15 14 13 14 15 16 17 17 18 17 14 12 10 9 8 8 9 10 12 15 15 16 17 17 17 16 18 20 24 27 27 25 24 25 27 29 31 33 34 35 37 37 36 36 36 34 32 30 29 30 31 30
24 25 26 28 28 28 25 22 22 24 23 20 19 19 19 18 20 23 24 23 23 23 23 21 20 19 17 15 15 18 19 20 20 18 15 12 12 14 15 16 17 17 15 13 10 9 7 7 7 9 10 12 14 15 15 16 17 16 15 15 18 22 25 27 25 24 24 26 27 28 30 31 32 34 35 36 36 36 35 32 30 29 29 29 29
24 24 26 27 26 28 28 24 21 23 25 22 20 20 20 18 19 20 21 20 19 18 18 18 17 16 15 15 17 19 21 22 21 19 16 13 12 12 14 15 15 15 13 10 9 8 6 6 8 10 11 12 14 14 14 15 16 16 14 14 16 19 22 25 25 24 22 23 25 26 27 29 30 31 33 35 35 35 35 32 29 27 28 30 30
24 23 26 28 25 25 27 25 21 22 24 22 20 20 19 17 18 19 19 19 18 18 17 17 16 16 16 16 16 17 19 21 21 19 17 15 13 12 13 14 15 14 12 10 9 8 6 7 8 10 11 13 14 15 15 15 16 15 14 13 14 16 19 22 24 24 22 21 23 25 25 26 27 28 31 33 33 34 35 33 29 25 24 27 30
25 23 26 29 27 24 25 25 22 21 22 22 21 21 19 15 15 17 18 19 19 18 18 17 16 16 16 17 16 16 17 19 19 18 17 16 14 14 14 14 14 13 12 11 11 10 8 7 8 10 12 14 15 15 16 16 16 15 15 14 13 14 17 20 23 23 22 20 21 23 24 24 24 25 27 29 31 32 33 33 31 27 24 23 25
27 24 25 30 30 26 25 24 21 21 24 24 22 23 22 20 17 16 17 18 18 17 17 17 16 16 16 16 16 17 18 19 19 19 18 16 15 15 14 14 14 14 13 12 11 11 9 8 9 11 13 14 15 15 16 16 16 15 14 15 14 13 14 18 20 22 21 20 19 20 22 23 23 23 24 26 28 30 31 31 32 30 27 23 21
27 25 26 31 33 30 27 24 19 19 24 26 25 24 24 23 21 20 19 19 20 20 21 21 20 18 17 16 16 17 19 20 20 20 19 18 17 17 16 16 16 15 14 13 12 12 12 11 12 14 14 14 14 14 14 15 15 14 13 14 14 14 13 15 18 20 21 19 17 18 20 21 21 22 23 24 25 27 29 30 30 30 29 25 22
26 25 27 32 33 30 29 27 22 18 19 22 25 26 27 25 24 23 21 21 22 23 23 24 24 23 22 20 19 19 20 21 21 21 21 20 19 18 18 18 18 17 16 15 14 14 14 14 15 15 15 15 15 14 13 13 14 13 12 13 14 14 14 15 16 18 19 19 17 16 18 19 19 20 21 22 22 24 27 29 29 28 27 26 25
25 24 27 31 32 30 29 29 28 24 21 20 21 24 26 26 26 26 24 22 21 21 21 22 23 24 25 25 24 24 24 23 23 24 23 22 20 19 18 18 19 19 18 16 15 16 17 17 18 18 17 17 16 15 13 12 12 12 11 12 13 14 15 15 15 16 18 19 17 14 15 17 18 18 19 20 20 21 23 26 28 27 26 26 27
24 23 25 29 31 31 30 30 30 28 26 24 22 22 23 23 23 24 24 23 22 21 21 22 22 23 24 26 27 28 28 27 27 26 25 23 21 20 20 19 19 19 18 17 16 18 20 21 20 20 19 19 17 16 14 13 12 11 11 12 13 13 15 16 16 16 17 18 17 14 13 13 15 16 17 18 19 19 21 23 25 25 25 24 25
24 23 25 27 30 31 31 31 30 30 28 26 24 24 23 23 23 23 23 24 24 25 25 25 24 24 23 24 24 25 26 27 27 26 26 25 23 22 21 20 19 19 19 19 20 22 24 24 23 22 22 21 20 18 16 15 13 12 12 13 13 13 14 16 16 17 16 17 17 15 12 10 12 14 15 16 17 18 19 21 22 22 22 22 22
26 25 26 29 31 33 33 32 31 30 30 29 28 26 25 25 26 26 26 26 27 28 29 29 29 28 28 27 26 25 25 25 25 25 26 26 26 25 24 24 23 23 22 22 22 24 25 26 26 25 23 23 22 20 19 17 16 14 14 14 14 13 13 14 16 16 17 17 17 15 12 10 9 11 12 14 15 16 16 18 20 20 19 19 19
29 26 24 26 30 33 33 34 33 32 31 30 30 29 28 27 28 28 28 28 27 27 28 28 29 29 30 30 30 30 28 27 26 25 25 24 24 25 26 26 26 25 24 23 24 25 26 26 26 26 25 24 24 23 22 21 18 17 16 15 15 15 14 13 14 15 16 17 16 15 14 11 9 8 10 11 13 14 15 15 16 18 17 16 17
34 30 24 22 25 27 28 29 32 33 33 33 33 32 31 30 29 29 29 29 29 28 27 26 25 25 26 27 29 30 31 31 30 29 28 27 26 25 25 25 25 25 25 25 25 25 24 24 24 24 24 25 25 25 25 23 21 20 19 17 17 17 16 14 14 14 15 16 16 16 15 13 10 8 8 9 10 12 14 13 12 14 16 15 14
Wind_Direction
147 149 150 152 155 153 148 143 139 136 135 131 128 125 124 122 118 115 113 108 103 100 96 90 86 83 81 77 78 81 81 83 83 76 71 67 62 60 62 60 60 62 59 54 54 53 49 46 41 35 31 27 21 16 10 5 360 357 356 353 351 351 348 339 327 320 323 327 325 322 325 327 325 325 325 324 325 326 327 326 325 325 324 324 323
161 160 159 158 154 149 144 140 136 134 133 132 130 128 126 124 122 119 115 110 106 102 96 88 82 79 75 70 75 83 85 90 93 82 72 70 66 62 62 60 62 66 64 59 56 52 47 45 40 33 29 25 21 17 9 3 0 358 357 358 354 354 354 345 335 328 326 328 328 327 329 328 326 326 325 323 323 323 324 323 323 323 322 323 322
163 160 156 150 143 139 137 135 136 135 133 131 130 128 126 125 123 120 115 111 108 102 95 88 81 76 68 62 66 80 93 101 102 88 73 69 68 65 62 60 63 67 67 61 55 51 48 43 36 31 29 27 23 18 10 6 5 2 360 0 356 352 352 345 335 328 325 327 329 330 329 327 326 327 325 322 321 321 321 321 321 321 321 320 319
159 153 147 143 141 139 137 137 138 137 134 133 132 129 127 125 122 118 114 111 108 102 96 88 81 72 64 61 63 73 91 107 108 93 74 71 73 70 66 62 61 63 65 62 56 53 47 37 34 36 32 28 23 17 13 10 6 3 1 358 353 347 346 344 335 329 323 322 327 328 326 324 324 325 324 322 323 322 320 319 320 320 319 318 317
155 153 148 146 145 142 141 140 139 138 137 136 132 130 128 127 125 121 116 113 108 102 93 82 72 63 61 67 70 71 80 99 107 93 78 77 78 73 71 68 62 63 67 67 64 56 42 33 40 41 30 26 23 15 11 9 5 2 359 354 348 343 341 342 338 333 327 322 324 325 324 323 322 324 326 326 326 324 322 320 320 319 318 317 317
153 154 153 151 148 145 143 142 140 139 137 134 131 129 128 128 128 124 119 114 107 99 91 79 64 57 62 75 77 73 75 85 93 87 80 81 78 74 74 69 59 61 71 72 65 52 41 41 47 37 24 22 17 9 8 9 3 360 357 351 346 341 338 340 340 337 333 328 327 327 327 326 325 325 329 328 325 322 321 320 320 319 317 316 315
155 155 155 152 148 145 144 142 141 139 136 133 131 130 129 129 127 123 121 114 106 100 93 79 61 55 65 77 78 74 76 80 83 82 77 77 78 76 74 69 57 57 74 77 65 54 48 49 46 27 18 16 8 3 6 7 1 358 356 349 344 340 335 336 338 337 335 332 331 331 331 329 327 325 324 324 321 319 320 319 317 317 316 313 311
157 156 154 150 147 145 144 143 141 139 137 135 133 131 129 128 125 123 120 111 107 104 95 81 65 59 67 76 76 76 77 78 78 77 74 73 75 75 74 72 58 47 68 80 64 56 55 51 38 18 13 10 4 1 4 4 359 357 354 349 344 339 333 330 332 334 332 330 329 330 328 324 324 324 323 323 321 318 318 316 311 312 313 309 306
157 156 154 150 147 145 144 143 141 141 139 136 135 133 131 129 126 125 122 116 112 107 94 84 72 65 70 76 77 76 75 73 69 68 69 68 68 70 70 73 59 40 56 82 67 54 56 50 27 13 13 10 1 359 3 4 359 354 352 350 344 337 331 326 326 327 327 327 327 326 323 319 321 323 322 321 318 314 314 312 308 307 309 305 301
158 156 154 151 148 146 145 144 143 142 139 135 134 133 132 131 128 124 122 121 118 109 92 84 79 73 73 75 77 77 73 70 65 62 62 62 67 72 63 62 63 42 36 61 71 53 47 39 16 12 16 12 4 3 4 3 359 353 350 349 344 337 329 323 321 322 321 321 323 323 322 320 321 322 318 315 314 313 313 312 308 307 306 304 301
156 156 154 151 148 147 146 145 143 141 137 135 135 135 134 134 131 126 123 121 121 112 93 82 77 74 73 73 74 75 71 69 69 68 65 62 64 68 53 48 60 45 24 35 73 50 31 28 22 18 16 12 9 9 7 1 357 352 348 347 346 341 332 324 319 317 317 316 318 320 319 317 320 320 317 315 315 314 313 311 307 306 303 301 302
156 155 153 151 150 148 147 145 143 141 138 137 137 137 137 134 132 129 127 125 126 122 103 86 77 72 71 71 69 69 70 68 71 73 69 65 62 60 49 43 51 45 23 20 28 22 20 27 29 21 18 14 10 7 4 357 351 347 345 345 345 342 337 330 322 316 313 312 313 316 317 315 318 320 318 317 316 314 312 309 304 302 299 295 295
156 155 153 153 152 150 148 146 144 142 140 139 138 138 136 134 133 132 131 131 132 131 121 102 84 71 67 67 66 66 65 63 68 74 67 62 59 53 43 35 39 37 17 8 3 12 27 34 32 23 18 15 10 3 357 351 347 345 344 344 343 341 339 337 332 324 317 312 310 312 316 315 314 317 318 318 315 312 310 308 305 302 297 294 291
158 157 155 155 153 151 150 147 146 144 142 141 140 139 137 135 134 134 134 134 134 134 133 123 102 78 66 64 63 62 60 57 60 71 68 61 57 48 35 24 24 27 19 17 23 50 43 35 30 23 17 13 8 0 352 348 344 342 343 343 342 341 340 339 338 332 324 319 314 313 316 317 315 316 318 317 314 311 308 306 306 304 298 295 292
160 158 157 156 154 153 152 149 147 145 144 143 141 139 137 134 134 135 135 136 136 135 136 130 119 94 68 60 58 56 55 54 55 63 67 64 57 44 31 19 13 17 25 30 35 34 19 25 24 16 10 8 5 357 350 345 341 339 340 341 341 341 341 341 339 334 329 326 322 319 319 319 319 318 319 318 315 311 309 307 306 304 299 295 294
161 159 157 156 156 155 152 149 148 146 145 144 142 140 138 135 134 134 133 136 137 136 135 130 121 110 85 64 56 51 49 47 48 54 60 58 53 39 31 26 24 22 28 34 34 15 343 356 4 2 1 2 359 352 346 341 338 337 337 338 340 339 340 342 341 339 335 330 326 325 323 322 322 322 321 320 318 316 314 311 307 304 298 293 294
161 159 158 157 156 154 152 150 149 147 147 146 146 145 143 140 139 138 136 137 138 139 140 137 133 127 107 81 62 52 48 43 40 44 51 52 47 40 33 29 29 29 29 34 32 20 345 340 350 353 353 351 346 342 341 338 337 337 335 335 337 337 339 341 341 341 340 333 328 330 327 325 325 325 325 324 323 320 316 310 308 307 298 290 293
159 158 157 156 155 155 154 152 150 148 149 150 148 146 144 142 143 144 142 140 135 131 131 133 134 130 110 92 75 59 50 44 38 36 45 47 43 40 34 27 27 29 28 32 33 25 0 344 346 345 339 336 336 337 339 338 338 338 337 335 335 336 337 338 339 341 341 336 332 332 330 329 329 328 328 327 326 324 317 309 310 308 296 286 292
159 158 156 155 155 156 155 153 152 151 151 150 148 147 146 147 148 149 150 149 142 133 128 127 128 126 110 93 81 67 54 46 37 33 39 42 39 37 30 25 26 29 29 29 27 18 2 345 339 335 331 332 335 338 341 341 340 340 340 338 335 335 337 338 339 341 340 336 334 332 332 332 331 330 330 329 329 328 321 316 315 309 297 292 294
159 157 156 155 155 155 155 154 153 152 152 151 151 149 148 149 153 155 157 157 154 148 146 144 142 145 139 116 91 71 57 48 38 32 33 35 34 33 29 26 27 29 30 26 11 3 356 346 340 339 338 338 340 344 350 353 350 347 347 347 344 340 340 341 343 343 340 335 334 333 332 333 332 331 332 331 332 332 328 326 324 317 308 300 294
157 156 155 155 156 156 157 156 154 153 153 152 151 150 151 153 157 160 160 159 158 158 165 172 172 173 173 165 144 96 64 50 38 29 27 27 28 29 27 27 27 24 23 16 3 355 348 342 342 344 344 344 345 351 359 2 0 356 354 353 352 349 347 346 346 346 341 336 334 334 334 334 333 333 333 333 333 334 334 334 332 325 317 306 296
156 155 156 156 157 157 157 156 155 154 154 153 151 153 155 157 159 161 158 156 160 172 183 190 193 188 181 184 185 147 82 54 35 26 22 21 24 26 26 28 28 19 11 3 356 350 343 340 342 344 345 346 352 359 2 0 359 358 354 352 354 354 351 349 349 347 342 338 336 335 335 335 334 333 334 335 335 336 337 338 336 330 323 314 304
157 156 156 156 156 156 155 155 155 155 156 156 155 154 153 153 155 159 160 160 171 187 193 197 201 194 186 189 193 176 122 68 33 23 20 20 20 22 30 37 32 15 4 358 351 346 344 343 343 344 347 352 360 6 4 359 356 355 353 352 355 356 355 354 352 348 344 341 338 336 336 336 335 335 336 337 337 338 339 339 338 336 332 327 322
156 155 155 155 154 154 154 155 156 157 157 156 154 152 153 153 156 160 164 168 175 183 188 196 201 195 188 187 186 176 153 112 42 20 17 18 21 31 47 53 39 17 5 358 351 348 348 348 347 351 355 359 5 6 4 0 358 357 356 356 357 359 359 357 353 349 346 343 339 337 337 337 337 337 337 337 339 341 343 343 344 343 342 340 341
155 154 153 153 153 153 154 156 157 158 158 158 156 156 158 162 165 169 173 177 180 183 187 190 186 177 179 184 182 172 160 138 51 14 12 15 26 48 58 49 29 13 2 357 355 354 353 351 350 355 359 1 4 5 2 1 2 2 2 2 1 2 2 359 354 350 347 344 341 339 338 338 339 338 337 339 343 346 347 348 350 352 354 355 357
153 153 153 153 153 155 156 157 158 158 158 158 158 160 162 167 174 183 191 195 198 198 192 183 170 159 162 172 172 167 163 162 360 356 3 12 28 54 54 36 22 12 4 360 359 358 357 354 352 356 0 3 5 4 0 1 4 6 7 6 5 5 5 0 355 352 349 346 344 341 339 340 341 340 341 345 349 350 350 350 351 354 358 0 2
154 154 154 154 155 157 157 158 158 159 158 159 162 166 171 176 184 194 196 193 190 184 177 171 168 163 157 158 163 167 173 188 319 342 351 5 25 46 44 25 12 6 3 359 357 355 355 354 355 359 4 7 8 4 1 1 5 7 9 8 7 6 6 2 358 355 352 349 346 343 343 344 344 343 345 349 352 354 353 353 353 356 359 1 4
156 156 157 157 158 159 160 160 159 159 161 164 167 172 179 187 193 193 188 184 179 171 164 158 156 158 157 156 159 165 179 229 307 326 335 352 11 28 26 8 354 350 349 345 344 349 352 352 356 2 6 9 10 7 3 3 5 7 9 9 8 7 5 3 1 359 356 352 349 347 346 347 347 346 347 351 354 356 357 357 358 358 1 5 9
158 158 159 160 161 162 162 162 161 162 165 169 173 180 189 194 190 178 171 176 182 181 175 168 162 162 164 166 172 181 206 259 289 305 325 344 351 347 346 344 338 339 339 336 335 342 350 353 355 360 4 8 11 10 6 3 5 7 7 8 8 7 5 4 2 359 356 354 352 350 349 349 349 348 349 352 356 359 360 1 2 2 3 8 10
159 161 163 163 163 164 164 164 165 166 169 173 177 179 180 184 188 181 170 168 174 178 180 181 186 194 194 193 205 222 238 260 280 295 318 334 335 326 322 326 329 333 335 334 333 336 345 349 352 358 4 7 11 13 9 5 6 7 4 5 7 7 6 5 2 359 357 356 354 353 352 351 350 350 351 353 357 0 2 4 5 6 7 8 8
161 164 166 166 166 165 166 167 167 168 171 174 171 161 153 152 161 171 173 177 183 188 192 196 205 216 220 224 232 238 243 254 264 282 317 335 337 324 315 320 328 334 335 335 335 340 346 347 350 0 7 7 11 15 11 8 9 9 4 2 5 6 5 5 3 0 359 358 357 356 355 354 353 352 352 355 359 2 4 6 8 9 10 10 9
164 166 167 167 167 168 169 169 170 172 176 176 171 163 157 152 150 151 164 188 198 200 209 219 223 222 224 228 225 213 213 225 229 240 312 347 353 337 324 325 332 337 338 335 333 342 352 351 353 5 10 9 12 14 12 11 11 10 6 2 2 5 5 5 5 4 2 1 359 357 357 356 356 356 355 356 1 4 5 8 10 10 11 13 13
167 168 168 168 168 170 170 171 173 178 179 176 173 171 171 172 173 174 179 189 191 191 198 206 204 199 199 200 193 186 190 207 210 202 199 354 344 332 330 334 336 338 340 336 327 336 355 356 357 8 12 11 12 11 10 12 11 9 7 4 2 4 5 5 7 8 6 4 2 0 359 358 358 359 358 359 2 6 8 10 11 11 12 13 14
170 171 170 170 171 174 175 175 178 183 183 179 178 180 184 190 194 191 188 191 195 198 200 200 198 197 196 196 195 194 196 207 210 207 212 249 300 308 318 331 335 336 342 338 324 326 351 356 358 8 12 11 11 9 8 10 9 7 6 5 4 5 5 6 8 9 8 7 5 3 2 1 0 0 360 360 3 8 10 12 14 14 14 14 15
172 173 172 172 174 179 181 182 184 188 187 183 183 187 193 200 203 202 201 201 202 204 207 208 208 209 210 211 210 210 214 221 221 224 236 250 270 287 299 312 319 321 332 335 325 325 344 353 357 6 8 6 7 8 7 6 5 5 6 6 5 6 7 6 8 10 10 9 7 5 4 4 3 3 3 3 4 7 10 13 16 17 17 17 16
171 173 174 176 178 182 186 189 190 191 190 189 191 196 201 203 205 206 207 208 209 213 218 221 220 221 222 225 226 226 226 229 233 240 247 253 264 275 283 293 303 307 314 321 320 322 336 346 350 358 2 2 3 5 4 2 1 3 5 5 5 8 9 7 8 11 13 12 10 8 7 6 5 5 5 5 6 7 11 16 18 19 21 22 21
173 176 179 182 184 184 187 192 193 193 194 195 197 200 204 207 209 209 209 211 215 221 227 230 230 230 230 231 232 233 232 233 239 246 252 258 263 268 274 282 288 294 303 310 311 313 326 339 345 351 356 358 358 360 360 358 357 359 2 2 4 9 11 10 10 13 15 13 12 11 9 8 8 8 7 7 7 8 11 16 20 21 23 25 26
181 185 186 187 190 191 191 192 192 193 198 203 202 201 203 206 208 210 211 213 218 223 229 234 236 234 234 234 235 235 234 236 241 246 252 259 264 268 274 278 280 285 294 300 300 303 316 330 337 342 348 350 351 353 354 354 354 355 357 357 360 6 11 12 14 16 17 15 13 13 11 10 10 10 9 9 9 9 11 16 20 22 23 25 28
190 194 191 189 193 197 198 196 194 194 199 206 206 203 205 206 204 203 206 211 217 223 226 228 229 231 233 239 242 238 233 232 237 242 247 253 262 271 276 277 277 279 285 291 293 296 308 322 328 331 336 341 345 347 349 350 350 350 350 350 355 3 9 12 13 16 18 15 14 14 13 12 11 12 13 12 11 11 13 16 21 26 28 28 30
193 195 191 190 194 199 202 203 201 198 200 206 205 202 208 213 208 201 202 210 218 223 223 221 225 232 240 246 246 242 235 232 233 236 242 249 258 267 273 278 278 273 272 281 288 287 295 313 319 320 326 334 340 343 342 342 346 347 343 342 348 359 7 11 11 14 18 17 15 14 14 12 12 13 14 14 14 14 16 18 22 30 37 37 35
197 195 193 192 195 199 203 206 208 203 200 203 204 201 207 215 213 207 208 214 220 227 232 234 238 244 248 249 248 244 239 234 231 234 241 247 254 263 270 279 281 273 266 274 279 275 283 306 312 313 321 328 334 337 336 334 339 343 340 335 339 351 2 8 9 11 15 18 16 15 15 13 13 13 14 15 16 18 19 20 22 28 36 40 39
202 201 198 196 196 199 201 205 210 207 202 201 204 205 210 217 217 213 214 217 221 228 234 238 241 243 246 251 253 249 241 235 234 238 241 243 252 266 273 276 276 272 270 274 273 267 273 291 300 307 315 320 325 332 334 331 334 339 338 330 329 340 356 5 6 6 10 16 16 16 16 15 14 14 14 15 17 18 19 20 20 22 27 32 35
205 209 204 198 198 200 201 203 208 209 204 202 204 208 214 221 226 226 222 221 226 234 238 241 245 246 248 253 254 248 242 238 238 239 241 245 259 273 276 273 270 267 267 271 267 261 265 280 292 300 306 311 317 326 329 329 332 337 335 328 323 327 344 358 3 4 6 11 14 15 16 15 14 14 15 14 16 18 20 20 19 21 24 26 29
205 209 204 198 199 203 204 205 209 209 205 205 207 211 215 220 227 232 231 228 231 236 239 241 244 246 248 252 250 244 240 240 239 240 244 254 266 274 276 276 273 266 262 266 265 260 263 277 287 290 294 301 308 315 323 329 334 336 331 325 320 318 328 346 358 2 3 5 7 12 15 16 15 14 14 13 14 16 18 19 18 20 23 25 28
207 207 202 198 200 204 207 210 214 215 211 210 211 213 215 218 222 228 232 232 233 236 237 238 240 242 244 247 247 244 243 243 244 247 253 260 267 271 273 274 270 262 258 262 264 260 261 271 278 280 284 292 298 302 311 326 335 334 325 319 315 313 318 333 346 353 358 359 360 4 12 16 16 14 13 13 12 14 17 19 18 19 21 23 26
205 204 202 200 200 203 207 211 215 219 221 222 219 215 214 216 220 225 229 232 236 240 243 243 243 242 242 243 244 246 247 247 249 253 256 258 261 265 266 264 261 257 255 257 256 256 260 268 273 274 278 285 290 291 297 313 327 329 321 316 312 309 311 319 328 337 346 353 354 356 5 14 15 14 14 14 13 12 16 19 19 20 21 22 24
201 200 201 202 203 204 207 210 214 217 221 226 229 227 223 222 223 226 229 233 237 243 248 251 250 248 247 246 246 247 247 248 250 253 254 254 255 258 258 256 254 253 253 252 252 256 262 267 270 273 277 280 281 282 287 298 310 315 314 315 314 307 305 308 313 319 331 342 347 348 355 8 13 12 12 15 14 11 13 17 18 20 22 22 22
203 203 204 206 206 207 209 210 213 217 220 223 229 232 232 232 232 233 236 238 240 242 245 248 250 251 251 251 251 251 251 251 251 252 253 253 252 253 254 254 252 252 253 255 258 261 263 264 265 269 274 276 276 277 280 286 292 298 303 309 312 309 304 302 303 307 316 329 337 340 342 354 7 10 9 11 12 11 11 13 15 17 19 19 20
207 211 214 212 210 210 212 213 215 218 220 222 226 230 232 234 236 237 238 241 242 242 243 245 246 248 250 251 252 253 254 255 255 256 257 256 255 253 252 253 254 253 253 255 259 263 264 264 264 265 268 270 271 272 274 276 281 287 293 299 304 305 302 300 301 301 304 313 325 333 333 334 351 4 6 6 7 7 7 11 14 15 14 13 14
213 220 222 215 209 209 212 214 215 218 219 221 223 226 229 232 234 235 237 239 241 243 245 245 246 247 248 249 249 251 252 254 255 257 259 260 260 257 255 254 253 250 249 253 260 265 266 266 265 265 264 264 265 267 269 270 274 281 287 291 294 296 296 297 299 300 299 301 310 322 327 322 324 342 355 359 0 359 357 1 10 13 10 7 7
219 225 228 221 212 211 213 213 214 215 218 220 222 225 227 230 233 236 237 239 241 244 247 249 250 252 252 252 252 251 251 250 251 252 254 256 258 259 258 256 253 250 250 255 262 266 266 266 265 265 264 263 264 266 267 268 273 278 281 283 286 289 289 291 293 295 295 294 297 307 317 317 310 315 333 345 349 348 345 347 358 5 3 360 359
Height
839 841 842 843 844 845 846 847 848 849 850 851 852 853 854 855 856 857 858 859 859 859 859 859 859 859 858 858 858 858 858 858 859 859 859 859 860 859 859 858 858 857 857 857 856 855 855 855 855 855 855 854 853 852 851 850 848 847 846 844 843 842 840 838 835 829 826 825 822 818 814 810 805 801 797 793 790 788 786 784 781 777 774 771 767
840 841 841 843 844 844 846 847 848 849 850 852 853 854 855 856 857 858 859 859 860 859 859 859 859 859 858 858 858 858 859 859 860 860 860 860 860 860 859 859 858 858 857 858 857 856 856 856 856 856 855 855 854 853 851 850 848 846 845 844 842 842 840 838 835 830 825 822 820 817 813 810 806 802 798 793 789 786 783 781 779 776 773 770 766
839 840 841 842 843 844 845 847 848 850 851 853 854 855 856 857 858 859 859 860 860 860 860 860 860 859 859 859 859 859 859 860 860 860 860 860 860 860 860 859 859 858 858 858 858 858 857 857 857 857 856 855 854 853 852 850 848 847 845 844 843 841 840 838 835 831 826 822 819 816 812 809 805 802 798 793 790 786 782 778 776 773 770 768 764
839 840 841 842 843 845 846 847 849 851 852 853 855 856 857 858 859 859 860 860 860 860 860 860 860 860 859 859 859 859 860 861 861 861 860 860 860 860 860 860 860 859 859 859 859 859 858 858 857 856 856 855 854 853 851 849 848 847 845 844 842 840 839 837 834 831 827 822 819 816 813 809 805 801 797 792 789 786 781 777 774 771 768 765 762
839 840 841 842 844 845 846 848 850 851 853 854 855 856 857 858 859 860 860 860 860 860 861 861 861 860 860 860 860 860 861 861 861 861 861 861 860 860 861 861 861 860 859 859 859 859 859 858 857 856 856 855 854 852 851 850 848 846 845 843 841 839 838 835 833 831 827 822 818 815 812 808 804 801 797 793 788 784 780 776 773 769 765 761 758
839 840 842 843 844 845 847 848 850 852 853 854 855 856 857 858 859 860 860 860 860 861 861 862 861 861 861 861 861 862 862 862 862 862 862 862 861 861 861 861 861 861 860 859 859 859 859 858 857 857 856 855 854 853 851 850 848 846 844 842 840 838 836 834 831 829 826 822 818 813 810 807 804 800 797 794 789 783 777 773 770 768 764 758 754
839 841 842 843 844 845 846 848 850 852 853 854 855 856 857 859 859 860 860 860 861 862 862 862 862 862 862 862 862 863 862 862 863 863 863 862 862 861 861 861 861 861 860 860 859 859 859 859 858 857 856 855 854 853 851 849 847 845 843 841 839 837 834 832 829 827 824 820 817 813 809 806 803 799 795 792 789 784 779 772 766 763 761 757 752
839 841 842 843 844 845 846 848 850 852 853 853 854 856 857 859 860 860 861 861 862 862 863 863 863 863 863 863 863 863 863 863 863 863 863 863 862 862 862 862 861 861 861 860 859 859 859 859 858 857 856 855 854 853 851 849 846 844 842 840 838 835 833 830 827 825 822 818 815 811 807 804 800 796 793 789 785 782 779 774 767 761 757 753 750
839 841 842 843 843 845 846 848 850 852 853 853 854 856 858 859 860 860 861 862 862 863 864 864 864 864 864 864 864 864 864 864 864 864 863 863 863 863 862 862 862 861 861 860 859 859 859 858 858 857 856 855 854 852 850 848 846 844 841 839 836 834 831 829 826 823 820 816 813 809 805 801 798 794 790 787 783 779 776 773 767 762 757 749 744
838 840 842 843 843 845 846 848 850 851 852 853 854 856 858 859 860 861 861 862 862 864 864 865 865 865 865 865 865 865 865 864 864 864 864 864 863 863 862 862 862 861 861 860 859 859 858 858 857 857 856 855 853 851 849 848 846 844 841 838 836 833 830 827 824 821 818 815 811 807 803 799 796 793 788 785 782 777 773 770 764 759 755 747 738
838 840 842 843 843 845 846 848 850 851 852 853 855 857 858 859 860 861 861 862 863 864 865 866 866 866 866 866 866 865 865 865 865 865 864 864 863 863 863 862 862 861 861 860 860 859 858 858 857 856 855 854 853 851 849 847 845 843 841 838 836 833 829 826 823 820 817 813 810 806 802 798 794 791 787 782 779 775 771 767 762 757 752 747 737
838 840 841 842 844 845 846 848 849 851 852 853 855 857 858 859 860 861 861 862 863 864 865 866 866 867 867 866 866 866 865 865 865 865 864 864 863 863 862 862 862 861 861 860 859 859 858 857 857 856 855 853 852 850 848 846 844 842 840 837 835 832 829 826 823 819 816 812 808 805 801 797 793 789 785 780 776 772 767 763 760 755 750 745 739
837 839 841 842 843 845 846 848 849 851 852 854 856 857 858 859 860 861 862 863 864 864 866 867 867 867 867 867 866 866 866 865 865 864 864 864 863 863 862 862 861 861 861 860 859 858 858 857 856 855 854 853 851 849 847 845 843 840 838 835 833 830 828 825 822 819 815 812 807 804 800 796 792 787 783 779 773 768 763 759 755 752 746 741 736
837 838 840 841 843 844 846 847 849 851 852 854 856 857 858 859 860 861 862 863 864 865 866 866 867 868 867 867 867 866 866 865 864 864 864 864 863 863 862 861 861 860 860 859 858 858 857 857 856 855 854 852 850 848 846 844 841 838 835 833 830 828 825 822 820 817 814 811 807 802 799 795 791 786 781 777 772 766 760 755 750 746 741 735 731
836 837 838 840 842 844 845 847 849 850 852 854 856 857 858 859 860 861 862 863 864 865 866 866 867 867 867 867 867 866 866 865 864 864 864 864 863 862 862 861 860 860 860 859 859 858 857 857 856 854 853 851 849 847 845 842 839 836 834 831 828 826 823 820 817 814 811 809 805 801 797 793 789 784 778 774 769 763 758 752 747 741 735 729 725
834 836 837 839 841 843 844 846 848 849 851 854 856 857 858 858 860 861 862 864 865 865 866 866 866 867 867 867 867 866 866 865 864 864 864 863 863 862 861 861 860 860 860 859 859 859 858 857 855 854 853 851 849 847 844 841 838 835 832 829 826 824 821 818 816 813 809 807 803 799 795 790 786 781 776 770 764 759 753 747 742 738 731 725 720
832 834 836 837 839 842 844 845 847 849 851 853 855 856 857 858 860 861 862 864 864 865 866 866 867 867 867 867 867 866 866 865 865 864 864 863 863 862 861 860 859 859 859 859 859 858 858 857 855 854 852 850 848 845 843 840 837 833 830 827 824 822 819 816 813 811 808 804 801 797 792 787 783 777 772 767 761 755 749 742 737 733 728 722 716
831 832 834 836 838 841 843 845 846 848 851 853 855 856 857 858 860 861 862 863 864 865 865 866 867 867 867 867 867 866 866 866 865 865 864 864 863 862 861 860 859 859 859 858 858 858 858 857 855 854 852 849 847 844 842 839 836 832 829 825 823 819 816 813 810 808 805 801 797 793 789 784 778 773 768 762 757 752 746 739 734 729 724 719 714
829 831 833 835 838 840 842 844 846 848 850 852 854 855 856 858 860 861 862 863 863 864 865 866 866 867 866 866 866 866 866 866 866 865 865 864 863 862 862 861 860 859 859 859 858 858 857 856 855 853 851 848 846 843 841 838 835 832 828 825 822 818 815 812 809 805 801 798 794 790 785 779 774 769 764 758 753 748 742 736 731 726 721 715 712
828 831 833 835 838 840 842 844 846 848 850 852 853 855 856 857 859 860 861 862 863 864 864 865 866 866 866 866 866 866 866 866 866 866 865 864 863 863 862 861 860 860 859 859 859 858 856 855 853 852 849 847 845 842 840 837 835 832 829 825 822 818 814 811 808 805 800 796 792 787 782 776 771 765 759 753 748 743 738 733 728 723 717 712 708
828 831 833 835 838 840 842 844 846 848 850 851 853 854 855 856 858 860 861 862 862 863 864 864 865 865 865 866 866 866 866 866 866 866 865 864 863 862 862 861 861 860 860 859 859 857 856 854 852 850 848 846 844 842 839 837 835 832 829 826 823 819 815 811 808 804 800 795 790 785 779 773 767 761 756 750 744 739 734 729 724 719 714 709 704
827 830 832 835 837 839 841 843 845 848 849 851 852 853 854 856 858 859 861 861 862 863 863 864 864 864 865 866 866 866 866 866 866 866 865 864 863 862 862 861 861 860 860 859 858 857 855 853 851 849 847 845 843 841 839 837 834 831 829 826 823 819 815 811 808 803 798 794 789 783 777 771 765 758 753 747 740 735 730 725 719 714 710 705 701
827 829 832 834 836 838 841 843 845 847 849 850 851 852 853 855 857 859 860 860 861 862 862 863 863 864 865 865 866 866 866 866 866 866 865 864 863 862 861 861 861 860 860 859 858 856 854 852 851 848 846 844 843 841 838 836 834 831 828 825 822 818 814 811 807 803 798 793 788 782 776 770 763 757 751 745 738 733 728 722 717 711 705 700 696
827 829 831 833 835 838 840 842 844 846 848 849 850 851 852 855 856 858 859 859 860 860 861 862 863 863 864 865 866 866 866 866 866 866 865 864 863 862 861 861 861 860 860 858 857 855 854 852 850 848 846 844 842 840 838 836 833 830 827 825 821 817 814 810 806 802 798 793 788 782 776 770 764 757 751 746 739 733 727 721 715 709 703 697 692
826 828 831 833 835 837 840 842 844 846 847 848 849 850 852 854 855 857 857 858 859 859 860 861 862 863 864 864 865 866 866 866 866 865 864 864 863 862 861 861 860 860 859 858 856 855 853 852 850 848 846 844 842 840 838 835 833 830 827 824 821 817 814 810 806 802 798 793 788 783 777 771 765 759 753 747 741 733 726 719 712 705 699 693 689
825 828 830 832 835 837 839 841 844 845 847 848 849 850 852 853 854 855 856 857 858 859 860 861 862 862 863 863 864 865 866 866 865 864 864 863 863 862 861 861 860 859 858 857 856 854 853 851 849 847 845 843 841 840 837 835 832 829 827 823 820 817 814 810 807 802 798 794 789 783 778 772 766 760 754 747 740 733 726 719 712 705 698 692 688
825 827 830 832 834 836 838 840 843 844 846 847 849 850 851 852 853 854 855 856 857 858 859 860 861 862 862 863 864 865 865 865 865 864 864 863 862 862 861 860 860 859 858 856 855 853 852 850 848 846 844 843 841 840 837 834 832 829 826 823 820 817 815 811 808 803 799 795 790 784 779 773 766 759 753 748 742 735 728 722 715 708 701 695 690
824 827 829 831 834 836 838 840 841 843 845 847 848 849 851 852 853 854 855 856 857 858 859 860 860 861 862 863 863 864 864 864 864 863 863 862 862 861 860 860 859 858 857 856 854 853 851 849 848 846 844 842 841 839 836 834 831 828 826 823 820 818 815 811 808 804 800 795 791 785 779 773 766 760 754 749 744 738 731 725 718 712 705 699 693
824 826 829 831 833 835 837 839 841 842 844 846 847 848 850 851 853 853 854 855 856 857 858 859 860 861 861 862 863 863 863 863 863 863 862 862 861 860 860 859 858 857 856 855 853 852 850 848 847 845 843 842 840 838 836 833 831 828 826 823 821 818 814 811 807 804 800 796 791 786 780 774 768 762 756 751 747 741 735 728 722 716 710 704 699
823 826 828 830 832 834 836 838 840 841 843 845 846 847 849 851 852 853 854 855 856 857 858 859 859 860 861 862 862 862 862 862 862 862 861 861 860 859 858 858 857 856 855 854 853 851 849 848 846 844 843 841 839 837 836 833 831 828 826 823 821 818 815 812 809 805 801 797 792 787 782 777 771 764 759 755 750 745 739 733 727 721 714 709 704
822 825 827 829 831 833 835 836 838 840 842 844 845 846 848 850 852 853 854 855 856 857 858 858 859 859 860 861 861 861 861 861 861 861 860 859 859 858 858 857 856 855 854 853 852 850 849 847 845 844 843 842 840 838 836 834 832 829 826 824 821 819 816 813 810 806 802 798 793 789 784 779 774 768 763 758 754 749 743 737 731 726 720 716 711
820 823 825 827 829 831 833 835 836 839 841 842 844 845 847 849 851 852 854 855 855 856 857 858 858 859 859 859 860 860 860 860 859 859 859 859 858 857 857 856 855 854 853 852 850 849 848 846 845 844 843 841 840 838 836 834 832 830 828 825 822 819 817 814 811 808 804 799 795 790 786 781 777 771 766 762 758 753 748 742 736 731 727 722 717
820 822 824 826 828 830 831 833 835 837 839 840 842 843 845 847 849 851 853 854 855 856 856 857 857 858 858 858 858 858 859 858 858 858 858 858 857 856 855 855 854 853 852 851 850 848 847 846 845 844 842 841 840 838 837 835 833 831 829 826 824 821 818 816 812 809 805 801 797 793 788 784 779 774 770 765 761 757 753 747 742 737 732 727 723
819 821 823 825 827 828 830 831 833 835 837 839 840 842 844 845 847 849 851 852 854 855 855 855 856 856 857 857 857 857 857 857 857 857 857 856 856 855 854 853 852 852 851 850 849 848 846 845 844 843 842 841 840 838 837 835 833 831 829 827 825 822 819 817 813 810 806 803 799 795 791 787 782 778 773 769 765 761 757 752 748 743 738 734 730
819 821 823 825 826 828 829 831 833 835 836 837 839 841 842 844 845 847 849 850 852 853 853 854 854 854 855 855 855 856 856 856 856 856 856 855 855 854 853 852 851 851 850 849 848 847 846 845 844 843 842 840 839 838 837 835 834 832 830 828 825 823 820 817 814 811 808 804 801 797 794 790 786 782 778 773 769 765 762 758 754 749 745 741 737
820 822 823 825 827 828 829 831 833 834 835 836 838 839 841 842 843 845 846 848 850 850 851 851 852 853 854 854 854 854 854 854 855 855 854 854 854 853 852 851 850 849 849 848 847 846 845 844 843 842 841 840 839 838 837 835 834 832 830 828 826 823 821 818 816 813 810 806 803 800 796 793 789 785 781 777 773 770 767 763 759 756 752 748 744
821 822 823 825 826 828 829 831 832 833 835 836 837 838 839 840 841 843 844 846 848 848 849 849 850 851 852 852 852 852 852 853 853 853 853 852 852 851 851 850 849 848 847 846 846 845 845 844 843 842 841 840 839 837 836 835 834 832 830 829 827 824 822 819 817 815 812 808 805 802 798 795 792 788 785 781 777 774 771 768 765 761 758 754 750
821 822 823 824 826 827 829 830 831 832 833 834 836 837 837 838 840 841 843 844 845 846 847 847 848 849 849 849 849 850 850 851 851 851 850 850 850 849 848 848 847 846 846 845 844 844 843 843 842 841 840 839 838 837 836 835 833 832 830 828 827 825 823 820 818 815 813 810 807 804 801 798 795 791 788 785 781 778 775 772 769 766 762 759 755
821 822 823 824 825 826 828 829 830 831 832 833 834 835 836 837 838 839 840 842 843 844 845 845 846 846 847 847 847 847 848 849 849 848 848 848 847 847 846 846 845 845 844 844 843 843 842 842 841 840 839 838 837 836 835 834 833 832 830 828 827 825 823 821 818 816 814 812 809 806 803 800 797 794 791 788 785 782 779 776 773 770 767 764 761
818 820 822 823 824 825 826 827 828 829 830 831 833 834 835 836 836 837 839 840 841 842 843 843 844 844 844 845 845 845 845 845 845 846 845 845 845 845 844 844 843 843 842 842 842 842 841 841 840 839 838 837 836 836 835 834 832 831 830 828 826 825 823 821 819 817 815 813 811 808 805 802 800 797 794 791 788 785 782 779 777 774 771 769 766
816 818 820 821 823 824 825 826 827 828 829 830 831 832 834 834 835 836 837 838 839 840 841 841 842 842 842 842 842 842 842 842 843 843 843 842 842 842 842 842 841 841 841 841 841 840 840 839 839 838 837 837 836 835 834 833 832 830 829 828 826 825 823 822 820 818 816 814 812 809 807 804 802 799 796 794 791 788 785 782 780 778 776 773 771
814 816 817 819 821 822 823 824 825 826 827 829 830 831 832 833 833 834 835 836 837 838 839 839 840 840 840 840 840 840 840 840 840 840 840 840 840 840 840 840 839 839 839 839 839 839 838 838 837 837 836 835 835 834 833 832 831 829 828 827 826 824 823 821 820 818 816 814 813 811 808 806 803 801 799 796 793 791 788 785 783 781 779 777 775
812 814 815 817 819 820 821 822 824 824 825 826 828 829 830 831 832 833 833 834 835 836 837 837 837 838 838 838 838 838 838 838 838 838 838 838 839 838 838 838 838 838 838 838 837 837 837 836 835 835 834 834 833 832 831 831 830 829 828 826 825 824 823 821 820 818 817 815 813 811 809 807 805 802 800 798 796 793 791 788 786 783 781 779 778
810 812 813 815 816 818 820 821 822 823 824 824 826 827 828 829 830 831 831 832 833 834 834 835 835 835 836 836 836 836 836 836 836 836 836 836 836 836 836 836 836 836 836 836 835 835 835 834 834 833 832 832 831 830 829 829 828 827 827 825 824 823 822 821 819 818 816 815 814 812 810 808 806 804 802 800 798 795 793 790 788 786 784 782 780
808 810 811 813 814 816 818 819 820 821 822 823 824 825 826 827 828 828 829 830 830 831 831 832 832 832 833 833 833 833 833 833 834 834 834 834 834 834 834 834 833 834 834 834 833 833 833 832 831 831 830 830 829 828 827 827 826 826 825 824 823 822 821 820 819 818 816 815 814 812 811 809 807 805 803 801 799 797 795 793 791 789 787 785 783
806 808 809 811 812 814 815 817 818 819 820 821 822 822 823 824 825 826 827 827 828 828 829 829 829 830 830 830 830 830 830 831 831 831 831 831 831 831 831 831 831 831 831 831 831 831 830 830 829 828 828 827 827 826 826 825 824 824 823 822 822 821 820 819 818 817 816 815 814 813 811 809 808 806 804 802 801 799 797 795 793 791 789 787 786
804 806 807 809 811 812 813 815 816 817 817 818 819 820 821 822 822 823 824 825 826 826 826 826 827 827 827 827 827 827 827 828 828 828 828 828 828 828 828 828 828 828 828 828 828 828 827 827 826 826 825 825 825 824 824 823 822 821 821 820 819 819 819 818 818 817 816 815 813 812 811 810 808 807 805 803 802 800 798 796 795 793 791 789 788
802 804 806 807 809 810 811 812 813 814 815 816 817 818 819 819 820 821 822 822 823 823 824 824 824 824 824 824 824 824 824 824 824 825 825 825 825 825 825 825 825 825 825 825 825 825 824 824 824 823 823 823 822 822 821 820 820 819 818 817 817 817 816 816 816 816 815 814 813 812 811 810 808 807 806 804 803 801 800 798 796 795 793 791 790
801 802 804 805 806 807 808 809 811 811 812 813 814 815 816 817 817 818 819 819 820 820 820 821 821 821 821 821 821 821 821 821 821 821 821 821 821 821 822 822 822 822 822 822 822 821 821 820 821 821 821 820 820 819 818 818 817 817 816 815 815 814 814 814 814 814 814 813 812 811 810 809 808 807 806 805 804 802 801 799 798 796 795 793 791
799 800 801 802 803 804 805 806 807 808 809 810 811 812 813 814 814 815 816 816 816 817 817 817 817 818 818 818 818 818 818 818 818 818 818 818 818 818 818 818 818 819 819 818 818 818 818 818 818 818 817 817 816 816 815 815 815 814 814 813 812 812 812 812 812 812 812 811 811 810 809 809 808 807 806 805 804 803 801 800 799 797 796 794 793
796 797 799 800 800 801 802 803 804 805 806 807 807 809 810 810 811 812 812 813 813 814 814 814 814 814 814 814 815 815 815 815 815 815 814 815 815 815 815 815 815 815 815 815 815 815 815 815 815 814 814 813 813 813 813 812 812 812 811 811 810 810 810 809 809 809 809 809 809 809 808 807 807 806 805 804 803 803 802 801 799 798 797 795 794